Weather in Spring Valley

United States     32°52′35″N   116°50′52″W
temp.,
°C
wind,
m/s
gust,
m/s
humid.,
%
clouds,
%
prec.,
mm/h
press.,
hPa
HPBL,
m
18 september, sat
sat1823:00+16sse11715 0.0 101611
02:00+15ssw008277 0.0 101611
05:00+15se1174100 0.0 101611
08:00+19sw11570 0.0 1017121
11:00+25wsw33330 0.0 1017593
14:00+27wsw55270 0.0 1016927
17:00+24wsw32330 0.0 1015648
20:00+15s11680 0.0 101611
19 september, sun
sun1923:00+14se00730 0.0 101611
02:00+13e00680 0.0 101511
05:00+13e11560 0.0 101411
08:00+19sw11310 0.0 101587
11:00+24w32230 0.0 1014653
14:00+27wsw44180 0.0 10121054
17:00+25wsw43240 0.0 1011828
20:00+15sw01570 0.0 101211
20 september, mon
mon2023:00+14ese11560 0.0 101211
02:00+14ese11480 0.0 101111
05:00+14se11400 0.0 101111
08:00+21ese11210 0.0 101282
11:00+29wsw23130 0.0 10121212
14:00+32wsw23150 0.0 10101680
17:00+28wsw23270 0.0 1011735
20:00+17nw01680 0.0 101411
21 september, tue
tue2123:00+18e11500 0.0 101411
02:00+18e12470 0.0 101411
05:00+19ene33400 0.0 101513
08:00+24ene22290 0.0 1017105
11:00+32se25170 0.0 10171651
14:00+34wsw13160 0.0 10162265
17:00+29w32300 0.0 1016572
20:00+19n11580 0.0 101811
22 september, wed
wed2223:00+21ne22450 0.0 101811
02:00+20ene11420 0.0 101711
05:00+20ene11360 0.0 101711
08:00+27ese11260 0.0 101884
11:00+32w33230 0.0 10161498
14:00+33w65250 0.0 10151178
17:00+30wsw32300 0.0 1014608
20:00+21sw01490 0.0 101511